Tracking 20942 objects as of 11-Jul-2020
HD Live streaming from Space Station
objects crossing your sky now

DELTA 2 R/B(1)

Track DELTA 2 R/B(1) now!
10-day predictions


NORAD ID: 24809
Int'l Code: 1997-025B
Perigee: 652.4 km
Apogee: 1,655.0 km
Inclination: 26.3 °
Period: 108.3 minutes
Semi major axis: 7524 km
RCS: 10.0934 m2 (large)
Launch date: May 20, 1997
Source: United States (US)
Launch site: AIR FORCE EASTERN TEST RANGE (AFETR)

Note: This is a ROCKET BODY
aabbcc
Your satellite tracking list
Your tracking list is empty




NASA's NSSDC Master Catalog

Two Line Element Set (TLE):
1 24809U 97025B   20192.46659706 +.00000100 +00000-0 -22020-4 0  9995
2 24809 026.2964 118.1880 0666186 237.6725 115.7575 13.30058573125099
Source of the keplerian elements: AFSPC